Regional Weather Roundup
Issued by NWS

Home | Current Version | Previous Version | Text Only | Print | Product List | Glossary On
Versions: 1 2 3 4 5 6 7 8 9 10 11 12 13 14 15 16 17 18 19 20 21 22 23 24 25 26 27 28 29 30 31 32 33 34 35 36 37 38 39 40 41 42 43 44 45 46 47 48 49 50
000
ASUS43 KBIS 041210
RWRND

NORTH DAKOTA REGIONAL WEATHER ROUNDUP
NATIONAL WEATHER SERVICE BISMARCK ND
600 AM CST WED MAR 04 2015

NOTE: "FAIR" INDICATES FEW OR NO CLOUDS BELOW 12,000 FEET WITH NO
SIGNIFICANT WEATHER AND/OR OBSTRUCTIONS TO VISIBILITY.


NDZ001>003-009>011-017-041300-
NORTHWEST NORTH DAKOTA

CITY           SKY/WX    TMP DP  RH WIND       PRES   REMARKS
WILLISTON      PTCLDY    -8 -15  71 NW13      30.23R WCI -28
6HR MIN TEMP: -10; 6HR MAX TEMP:  -2;

MINOT          FAIR     -10 -19  64 W18       30.17R WCI -34
MINOT AFB      CLEAR    -12 -19  70 NW17      30.17R WCI -36
$$

NDZ018>021-031>035-040>046-041300-
SOUTHWEST NORTH DAKOTA

CITY           SKY/WX    TMP DP  RH WIND       PRES   REMARKS
BISMARCK       CLEAR     -2 -10  69 NW15G25   30.20R WCI -22
6HR MIN TEMP:  -2; 6HR MAX TEMP:   5; 6HR PCP: TRACE;

DICKINSON      CLEAR     -5 -13  68 NW13      30.11R WCI -24
GARRISON         N/A     -9 -16  71 NW14      30.17R WCI -30
6HR MIN TEMP:  -9; 6HR MAX TEMP:   2;

HETTINGER ARPT CLEAR     -5 -11  75 NW13      30.13R WCI -24
$$

NDZ004>008-012>016-024-026-027-054-041300-
NORTHEAST NORTH DAKOTA

CITY           SKY/WX    TMP DP  RH WIND       PRES   REMARKS
GRAND FORKS    PTCLDY    -9 -15  75 NW7       30.15R WCI -24
GRND FRKS AFB  CLEAR     -8 -16  69 NW10      30.14R WCI -27
DEVILS LAKE    CLEAR    -11 -20  64 N7        30.11R WCI -26
$$

NDZ022-023-025-028>030-036>039-047>053-041300-
SOUTHEAST NORTH DAKOTA

CITY           SKY/WX    TMP DP  RH WIND       PRES   REMARKS
FARGO          CLEAR     -5 -12  72 W10       30.15R WCI -23
6HR MIN TEMP:  -5; 6HR MAX TEMP:   1;

JAMESTOWN      CLEAR     -5 -11  75 W10       30.11R WCI -23
$$



USA.gov is the U.S. government's official web portal to all federal, state and local government web resources and services.